Regional Weather Roundup
Issued by NWS San Diego, CA

Home | Current Version | Previous Version | Text Only | Print | Product List | Glossary On
Versions: 1 2 3 4 5 6 7 8 9 10 11 12 13 14 15 16 17 18 19 20 21 22 23 24 25 26 27 28
000
ASUS46 KSGX 272211
RWRSGX

SAN DIEGO HOURLY WEATHER ROUNDUP
NATIONAL WEATHER SERVICE SAN DIEGO CA
300 PM PDT FRI MAY 27 2016

NOTE: "FAIR" INDICATES FEW OR NO CLOUDS BELOW 12,000 FEET WITH NO
SIGNIFICANT WEATHER AND/OR OBSTRUCTIONS TO VISIBILITY.

CAZ042-043-060-061-PZZ750-775-272300-

GREATER SAN DIEGO AREA

CITY           SKY/WX    TMP DP  RH WIND       PRES   REMARKS
LINDBERGH FLD  MOSUNNY   69  55  60 W7        29.89F
POINT LOMA       N/A     70  55  58 W12         N/A
NATIONAL CITY    N/A     70  60  70 SW8       29.89F
CHULA VISTA      N/A     69  60  74 W12       29.81F
IMPERIAL BEACH MOSUNNY   70  56  61 W12       29.89F
BROWN FIELD    SUNNY     69  56  62 W12G18    29.87F
MIRAMAR MCAS   MOSUNNY   73  54  51 W8        29.87F
MONTGOMERY FLD SUNNY     70  55  59 W10       29.87F

$$

NORTH SAN DIEGO COUNTY

CITY           SKY/WX    TMP DP  RH WIND       PRES   REMARKS
CAMP PENDLETON SUNNY     70  56  61 SW9       29.86F
OCEANSIDE AP   SUNNY     68  54  60 W12       29.86F
OCEANSIDE HBR    N/A     64  58  80 W16       29.90F
VISTA            N/A     70  59  68 W2        29.84F
CARLSBAD       MOSUNNY   66  56  70 W12       29.86F
DEL MAR          N/A     69  59  69 W2        29.90F
LA JOLLA SCRIP   N/A     65  58  77 SW3       29.88F
FALLBROOK        N/A     76  60  58 W2        29.84F
ESCONDIDO        N/A     77  60  56 S1        29.86F
SAN MARCOS       N/A     70  57  63 NW8       29.84F
POWAY            N/A     75  59  56 SW3       29.86F

$$

EAST SAN DIEGO COUNTY

CITY           SKY/WX    TMP DP  RH WIND       PRES   REMARKS
RAMONA         SUNNY     77  55  46 NW10      29.86F
SANTEE LAKES     N/A     74  59  59 W7        29.84F
LA MESA          N/A     71  58  62 CALM      29.80F
DESCANSO N       N/A     74  53  47 W10       29.76F
MT. LAGUNA OBS   N/A     64  32  30 E3        29.60F
CAMPO            N/A     79  48  33 SW17G23   29.83F

$$

ORANGE COUNTY AND THE LOS ANGELES BASIN

CITY           SKY/WX    TMP DP  RH WIND       PRES   REMARKS
JOHN WAYNE AP  MOSUNNY   70  54  56 W7        29.86F
LAKE FOREST FR   N/A     76  55  46 W3        29.75F
HUNTINGTON BCH   N/A     70  60  70 SW3       29.89F
LOS ALAMITOS   MOSUNNY   70  56  59 SW13      29.86F
FULLERTON      SUNNY     75  54  47 SW9       29.85F
LONG BEACH     SUNNY     68  55  63 S9        29.87F
L.A. AP        MOSUNNY   68  55  63 W14       29.87F
L.A. DOWNTOWN  SUNNY     70  55  59 W8        29.85F

$$

THE INLAND EMPIRE

CITY           SKY/WX    TMP DP  RH WIND       PRES   REMARKS
CORONA         SUNNY     78  56  46 NW16      29.83F
CHINO          MOSUNNY   83  52  34 W15G22    29.84F
ONTARIO        MOSUNNY   80  51  36 W14       29.83F
SAN BERNARDINO SUNNY     84  46  26 MISG      29.84F
RIVERSIDE AP   SUNNY     80  50  34 W9G16     29.83F
MORENO VALLEY    N/A     83  55  37 W7        27.96F
MARCH ARB      SUNNY     82  50  32 NW14      29.84F
HORSETHIEF CYN   N/A     80  47  30 N12       29.85F
PERRIS           N/A     81  50  33 W8        29.81F
HEMET EAST       N/A     82  40  22 W6        29.73F
FRENCH VALLEY  FAIR      79  54  41 SW8       29.84F
TEMECULA         N/A     79  57  47 SW3       29.79F

$$

SAN BERNARDINO AND RIVERSIDE COUNTY MOUNTAINS

CITY           SKY/WX    TMP DP  RH WIND       PRES   REMARKS
BIG BEAR AP    SUNNY     63  27  25 NE10      30.05F
ANGELUS OAKS     N/A     66  43  42 CALM      29.78F
PINE COVE        N/A     64  45  49 N2        29.85F

$$

SOUTHERN DESERT INCLUDING THE COACHELLA VALLEY

CITY           SKY/WX    TMP DP  RH WIND       PRES   REMARKS
PALM SPRINGS     N/A     95  36  12 NE7         N/A
THOUSAND PALMS   N/A     96  39  14 SE8       29.71F
PALM DESERT      N/A     96  43  16 SE3       31.04S
THERMAL        SUNNY     95  31  10 SE10      29.70F
BLYTHE         SUNNY     93  37  14 S8        29.73F
IMPERIAL AP    SUNNY     94  30  10 VRB5      29.73F
EL CENTRO NAS  MOSUNNY   92  31  11 MISG      29.74F
YUMA AZ        SUNNY     92  37  14 SW10      29.75
MEXICALI       SUNNY     93  28  10 W3        29.75F

$$

UPPER DESERT

CITY           SKY/WX    TMP DP  RH WIND       PRES   REMARKS
VICTORVILLE AP MOSUNNY   84  28  13 S7        29.87F
HESPERIA         N/A     83  39  20 SW8       29.90F
PALMDALE       SUNNY     84  31  14 W7        29.85F
LANCASTER      SUNNY     85  31  14 VRB5      29.84F
EDWARDS AFB    MOSUNNY   84  28  13 VRB2      29.82F
DAGGETT        SUNNY     87  32  14 N7        29.80F
29 PALMS N     MOSUNNY   87  25  10 SE9       29.87F
NEEDLES        SUNNY     95  31  10 VRB5      29.72F

$$

REGIONAL REPORTS

CITY           SKY/WX    TMP DP  RH WIND       PRES   REMARKS
SANTA BARBARA  SUNNY     67  54  63 SW8       29.88F
SANDBERG       MOSUNNY   74  38  27 S14G20    29.98F
LAS VEGAS NV   MOSUNNY   88  29  12 W7        29.75F
PHOENIX AZ     MOSUNNY   90  29  11 VRB7      29.75F
TIJUANA        MOSUNNY   68  52  56 W13       29.90F
ENSENADA NW      N/A     66  32  28 W10       29.88S

$$

OFFSHORE ISLANDS

CITY           SKY/WX    TMP DP  RH WIND       PRES   REMARKS
CATALINA ARPT  SUNNY     65  52  62 W6        29.90F
SAN CLEMENTE I MOSUNNY   63  53  70 SW9       29.91F
SAN NICOLAS IS MOSUNNY   65  53  65 NW14      29.90F

$$

MARINE AND OFFSHORE BUOY REPORTS

STATION/POSITION SKY/WX   TEMP    WIND        PRES    SWELL
                          AIR SEA DIR/SP/G            HT/PER/DIR
                          (F)     (DEG/KT/KT) (MB)    (FT/S/D)
TANNER BANKS               58 61  310/ 16/ 17 1013.2F   5/330/ 9
S CLEMENTE BASIN           59 64  250/  8/ 10 1012.1F   3/290/ 7
SAN NICOLAS IS.               60                N/A     2/320/11
SO. S. ROSA ISLA           56 57  300/ 16/ 19 1013.0F   5/310/10
W. S. BARBARA CH           55 54  310/ 14/ 17 1012.5F   5/330/10
M. S. BARBARA CH           57 60  250/ 10/ 12 1013.3F
S. MONICA BASIN            61 63  260/  6/ 10 1012.4F   2/ 90/16
S PEDRO CHANNEL               66                N/A
OCEANSIDE OFFSHR              65                N/A     2/210/15
TORREY PINES OTR              66                N/A     2/220/15
LA JOLLA 1                 65 67  300/  5/  6 1012.1F
SAN DIEGO BAY                 69              1012.4F
POINT LOMA SOUTH              66                N/A     2/200/15

$$





USA.gov is the U.S. government's official web portal to all federal, state and local government web resources and services.